Location: Barcelona
(41.3829°N, 2.1774°E)
Time: 17:52:04
(UTC+00:00)

ISS - Pass Details

Date: 10 May 2026
Orbit: 414 x 424 km, 51.6° (Epoch: 17 May)

Event Time Altitude Azimuth Distance (km) Brightness Sun altitude
Rises 22:04:39 0° 287° (WNW) 2,349 0.7 -26.2°
Reaches altitude 10° 22:07:21 10° 311° (NW) 1,489 -0.1 -26.4°
Maximum altitude 22:09:29 16° 351° (N) 1,193 -0.7 -26.6°
Drops below altitude 10° 22:11:37 10° 30° (NNE) 1,493 -0.6 -26.8°
Enters shadow 22:12:08 - 37° (NE) 1,632 -0.5 -26.8°
